Time,TemperatureF,DewpointF,PressureIn,WindDirection,WindDirectionDegrees,WindSpeedMPH,WindSpeedGustMPH,Humidity,HourlyPrecipIn,Conditions,Clouds,dailyrainin,SoftwareType,DateUTC
2013-05-21 00:06:00,67.4,21.0,29.84,North,355,0.0,-999.0,17,-99.99,,,0.00,weatherlink.com 1.10,2013-05-21 07:06:00,
2013-05-21 00:21:00,67.8,21.0,29.84,North,355,0.0,-999.0,17,-99.99,,,0.00,weatherlink.com 1.10,2013-05-21 07:21:00,
2013-05-21 00:36:00,69.5,21.0,29.84,North,355,0.0,-999.0,16,-99.99,,,0.00,weatherlink.com 1.10,2013-05-21 07:36:00,
2013-05-21 00:51:00,68.6,21.0,29.84,North,355,0.0,-999.0,16,-99.99,,,0.00,weatherlink.com 1.10,2013-05-21 07:51:00,
2013-05-21 01:06:00,67.5,21.0,29.83,North,355,0.0,-999.0,17,-99.99,,,0.00,weatherlink.com 1.10,2013-05-21 08:06:00,
2013-05-21 01:21:00,65.8,20.0,29.83,North,355,0.0,-999.0,17,-99.99,,,0.00,weatherlink.com 1.10,2013-05-21 08:21:00,
2013-05-21 01:36:00,65.9,21.0,29.83,North,355,0.0,-999.0,18,-99.99,,,0.00,weatherlink.com 1.10,2013-05-21 08:36:00,
2013-05-21 01:51:00,66.2,20.0,29.83,North,355,0.0,-999.0,17,-99.99,,,0.00,weatherlink.com 1.10,2013-05-21 08:51:00,
2013-05-21 02:06:00,65.3,21.0,29.83,North,355,0.0,-999.0,18,-99.99,,,0.00,weatherlink.com 1.10,2013-05-21 09:06:00,
2013-05-21 02:21:00,65.6,21.0,29.83,North,355,0.0,-999.0,18,-99.99,,,0.00,weatherlink.com 1.10,2013-05-21 09:21:00,
2013-05-21 02:36:00,66.5,20.0,29.83,North,355,0.0,-999.0,17,-99.99,,,0.00,weatherlink.com 1.10,2013-05-21 09:36:00,
2013-05-21 02:51:00,65.9,20.0,29.83,North,355,0.0,-999.0,17,-99.99,,,0.00,weatherlink.com 1.10,2013-05-21 09:51:00,
2013-05-21 03:06:00,66.0,20.0,29.82,North,355,2.0,-999.0,17,-99.99,,,0.00,weatherlink.com 1.10,2013-05-21 10:06:00,
2013-05-21 03:21:00,66.7,19.0,29.82,North,355,0.0,-999.0,16,-99.99,,,0.00,weatherlink.com 1.10,2013-05-21 10:21:00,
2013-05-21 03:37:00,66.1,20.0,29.83,North,355,0.0,-999.0,17,-99.99,,,0.00,weatherlink.com 1.10,2013-05-21 10:37:00,
2013-05-21 03:52:00,65.4,19.0,29.83,North,355,0.0,-999.0,17,-99.99,,,0.00,weatherlink.com 1.10,2013-05-21 10:52:00,
2013-05-21 04:07:00,65.1,19.0,29.83,North,355,0.0,-999.0,17,-99.99,,,0.00,weatherlink.com 1.10,2013-05-21 11:07:00,
2013-05-21 04:22:00,65.3,21.0,29.83,North,355,0.0,-999.0,18,-99.99,,,0.00,weatherlink.com 1.10,2013-05-21 11:22:00,
2013-05-21 04:37:00,65.3,19.0,29.83,North,355,0.0,-999.0,17,-99.99,,,0.00,weatherlink.com 1.10,2013-05-21 11:37:00,
2013-05-21 04:52:00,65.1,19.0,29.83,North,355,0.0,-999.0,17,-99.99,,,0.00,weatherlink.com 1.10,2013-05-21 11:52:00,
2013-05-21 05:07:00,64.7,20.0,29.84,North,355,0.0,-999.0,18,-99.99,,,0.00,weatherlink.com 1.10,2013-05-21 12:07:00,
2013-05-21 05:22:00,64.0,19.0,29.84,North,355,0.0,-999.0,18,-99.99,,,0.00,weatherlink.com 1.10,2013-05-21 12:22:00,
2013-05-21 05:37:00,63.0,20.0,29.84,North,355,0.0,-999.0,19,-99.99,,,0.00,weatherlink.com 1.10,2013-05-21 12:37:00,
2013-05-21 05:52:00,62.8,21.0,29.84,North,355,0.0,-999.0,20,-99.99,,,0.00,weatherlink.com 1.10,2013-05-21 12:52:00,
2013-05-21 06:07:00,62.8,21.0,29.85,North,355,0.0,-999.0,20,-99.99,,,0.00,weatherlink.com 1.10,2013-05-21 13:07:00,
2013-05-21 06:22:00,64.6,20.0,29.85,North,355,0.0,-999.0,18,-99.99,,,0.00,weatherlink.com 1.10,2013-05-21 13:22:00,
2013-05-21 06:37:00,66.3,21.0,29.86,North,355,1.0,-999.0,18,-99.99,,,0.00,weatherlink.com 1.10,2013-05-21 13:37:00,
2013-05-21 06:52:00,68.2,23.0,29.86,North,355,2.0,-999.0,18,-99.99,,,0.00,weatherlink.com 1.10,2013-05-21 13:52:00,
2013-05-21 07:07:00,70.5,24.0,29.86,North,355,1.0,-999.0,17,-99.99,,,0.00,weatherlink.com 1.10,2013-05-21 14:07:00,
2013-05-21 07:22:00,72.5,24.0,29.86,WNW,288,0.0,-999.0,16,-99.99,,,0.00,weatherlink.com 1.10,2013-05-21 14:22:00,
2013-05-21 07:37:00,74.5,25.0,29.86,WNW,288,0.0,-999.0,16,-99.99,,,0.00,weatherlink.com 1.10,2013-05-21 14:37:00,
2013-05-21 07:52:00,77.3,24.0,29.85,WNW,288,0.0,-999.0,14,-99.99,,,0.00,weatherlink.com 1.10,2013-05-21 14:52:00,
2013-05-21 08:07:00,79.4,26.0,29.86,WNW,288,0.0,-999.0,14,-99.99,,,0.00,weatherlink.com 1.10,2013-05-21 15:07:00,
2013-05-21 08:23:00,81.2,26.0,29.86,WNW,288,0.0,-999.0,13,-99.99,,,0.00,weatherlink.com 1.10,2013-05-21 15:23:00,
2013-05-21 08:38:00,82.7,25.0,29.86,WNW,291,0.0,-999.0,12,-99.99,,,0.00,weatherlink.com 1.10,2013-05-21 15:38:00,
2013-05-21 08:53:00,84.4,28.0,29.86,WNW,294,1.0,-999.0,13,-99.99,,,0.00,weatherlink.com 1.10,2013-05-21 15:53:00,
2013-05-21 09:08:00,85.2,27.0,29.86,WNW,296,2.0,-999.0,12,-99.99,,,0.00,weatherlink.com 1.10,2013-05-21 16:08:00,
2013-05-21 09:23:00,86.2,28.0,29.86,WNW,296,4.0,-999.0,12,-99.99,,,0.00,weatherlink.com 1.10,2013-05-21 16:23:00,
2013-05-21 09:38:00,87.7,29.0,29.85,WNW,300,3.0,-999.0,12,-99.99,,,0.00,weatherlink.com 1.10,2013-05-21 16:38:00,
2013-05-21 09:53:00,88.0,29.0,29.85,NW,314,0.0,-999.0,12,-99.99,,,0.00,weatherlink.com 1.10,2013-05-21 16:53:00,
2013-05-21 10:08:00,89.2,28.0,29.85,NW,319,0.0,-999.0,11,-99.99,,,0.00,weatherlink.com 1.10,2013-05-21 17:08:00,
2013-05-21 10:23:00,90.6,29.0,29.85,NW,326,0.0,-999.0,11,-99.99,,,0.00,weatherlink.com 1.10,2013-05-21 17:23:00,
2013-05-21 10:38:00,91.2,27.0,29.84,NW,326,0.0,-999.0,10,-99.99,,,0.00,weatherlink.com 1.10,2013-05-21 17:38:00,
2013-05-21 10:53:00,92.4,28.0,29.84,NNW,327,0.0,-999.0,10,-99.99,,,0.00,weatherlink.com 1.10,2013-05-21 17:53:00,
2013-05-21 11:08:00,92.5,28.0,29.84,NW,304,4.0,-999.0,10,-99.99,,,0.00,weatherlink.com 1.10,2013-05-21 18:08:00,
2013-05-21 11:23:00,93.4,29.0,29.84,WNW,300,1.0,-999.0,10,-99.99,,,0.00,weatherlink.com 1.10,2013-05-21 18:23:00,
2013-05-21 11:38:00,93.4,27.0,29.83,WNW,302,2.0,-999.0,9,-99.99,,,0.00,weatherlink.com 1.10,2013-05-21 18:38:00,
2013-05-21 11:53:00,94.9,28.0,29.83,West,260,0.0,-999.0,9,-99.99,,,0.00,weatherlink.com 1.10,2013-05-21 18:53:00,
2013-05-21 12:08:00,95.1,22.0,29.82,SSW,211,1.0,-999.0,7,-99.99,,,0.00,weatherlink.com 1.10,2013-05-21 19:08:00,
2013-05-21 12:23:00,96.4,23.0,29.81,SSW,197,10.0,-999.0,7,-99.99,,,0.00,weatherlink.com 1.10,2013-05-21 19:23:00,
2013-05-21 12:38:00,96.4,23.0,29.80,SSE,155,1.0,-999.0,7,-99.99,,,0.00,weatherlink.com 1.10,2013-05-21 19:38:00,
2013-05-21 12:53:00,97.1,23.0,29.79,SSW,201,4.0,-999.0,7,-99.99,,,0.00,weatherlink.com 1.10,2013-05-21 19:53:00,
2013-05-21 13:08:00,97.6,16.0,29.79,SE,144,6.0,-999.0,5,-99.99,,,0.00,weatherlink.com 1.10,2013-05-21 20:08:00,
2013-05-21 13:23:00,97.8,20.0,29.78,SSW,194,1.0,-999.0,6,-99.99,,,0.00,weatherlink.com 1.10,2013-05-21 20:23:00,
2013-05-21 13:38:00,98.5,24.0,29.78,SSW,205,4.0,-999.0,7,-99.99,,,0.00,weatherlink.com 1.10,2013-05-21 20:38:00,
2013-05-21 13:53:00,97.9,24.0,29.77,WNW,298,3.0,-999.0,7,-99.99,,,0.00,weatherlink.com 1.10,2013-05-21 20:53:00,
2013-05-21 14:08:00,98.3,24.0,29.77,South,170,5.0,-999.0,7,-99.99,,,0.00,weatherlink.com 1.10,2013-05-21 21:08:00,
2013-05-21 14:24:00,99.5,21.0,29.76,WSW,255,4.0,-999.0,6,-99.99,,,0.00,weatherlink.com 1.10,2013-05-21 21:24:00,
2013-05-21 14:39:00,98.6,21.0,29.75,WSW,255,2.0,-999.0,6,-99.99,,,0.00,weatherlink.com 1.10,2013-05-21 21:39:00,
2013-05-21 14:54:00,99.9,22.0,29.74,West,265,1.0,-999.0,6,-99.99,,,0.00,weatherlink.com 1.10,2013-05-21 21:54:00,
2013-05-21 15:09:00,99.9,22.0,29.74,WSW,248,9.0,-999.0,6,-99.99,,,0.00,weatherlink.com 1.10,2013-05-21 22:09:00,
2013-05-21 15:23:00,98.5,24.0,29.73,WSW,237,2.0,-999.0,7,-99.99,,,0.00,weatherlink.com 1.10,2013-05-21 22:23:00,
2013-05-21 15:39:00,98.9,21.0,29.72,WNW,288,2.0,-999.0,6,-99.99,,,0.00,weatherlink.com 1.10,2013-05-21 22:39:00,
2013-05-21 15:53:00,98.4,21.0,29.72,WNW,284,4.0,-999.0,6,-99.99,,,0.00,weatherlink.com 1.10,2013-05-21 22:53:00,
2013-05-21 16:08:00,98.7,17.0,29.71,WNW,282,0.0,-999.0,5,-99.99,,,0.00,weatherlink.com 1.10,2013-05-21 23:08:00,
2013-05-21 16:24:00,98.5,5.0,29.70,West,277,0.0,-999.0,3,-99.99,,,0.00,weatherlink.com 1.10,2013-05-21 23:24:00,
2013-05-21 16:38:00,98.9,-4.0,29.70,WSW,252,7.0,-999.0,2,-99.99,,,0.00,weatherlink.com 1.10,2013-05-21 23:38:00,
2013-05-21 16:54:00,99.4,-3.0,29.69,West,281,1.0,-999.0,2,-99.99,,,0.00,weatherlink.com 1.10,2013-05-21 23:54:00,
2013-05-21 17:08:00,99.7,6.0,29.69,WSW,245,0.0,-999.0,3,-99.99,,,0.00,weatherlink.com 1.10,2013-05-22 00:08:00,
2013-05-21 17:24:00,97.9,11.0,29.68,WSW,256,1.0,-999.0,4,-99.99,,,0.00,weatherlink.com 1.10,2013-05-22 00:24:00,
2013-05-21 17:39:00,96.8,15.0,29.67,West,261,3.0,-999.0,5,-99.99,,,0.00,weatherlink.com 1.10,2013-05-22 00:39:00,
2013-05-21 17:54:00,97.0,15.0,29.67,WSW,241,4.0,-999.0,5,-99.99,,,0.00,weatherlink.com 1.10,2013-05-22 00:54:00,
2013-05-21 18:09:00,96.6,15.0,29.66,SW,236,1.0,-999.0,5,-99.99,,,0.00,weatherlink.com 1.10,2013-05-22 01:09:00,
2013-05-21 18:25:00,96.7,10.0,29.66,SW,232,1.0,-999.0,4,-99.99,,,0.00,weatherlink.com 1.10,2013-05-22 01:25:00,
2013-05-21 18:39:00,96.7,15.0,29.66,SW,234,0.0,-999.0,5,-99.99,,,0.00,weatherlink.com 1.10,2013-05-22 01:39:00,
2013-05-21 18:54:00,96.8,15.0,29.66,SSW,211,2.0,-999.0,5,-99.99,,,0.00,weatherlink.com 1.10,2013-05-22 01:54:00,
2013-05-21 19:10:00,95.7,14.0,29.65,SSW,209,1.0,-999.0,5,-99.99,,,0.00,weatherlink.com 1.10,2013-05-22 02:10:00,
2013-05-21 19:24:00,94.7,14.0,29.65,SSW,209,0.0,-999.0,5,-99.99,,,0.00,weatherlink.com 1.10,2013-05-22 02:24:00,
2013-05-21 19:40:00,93.6,13.0,29.65,SSW,209,0.0,-999.0,5,-99.99,,,0.00,weatherlink.com 1.10,2013-05-22 02:40:00,
2013-05-21 19:55:00,91.9,16.0,29.65,SSW,209,0.0,-999.0,6,-99.99,,,0.00,weatherlink.com 1.10,2013-05-22 02:55:00,
2013-05-21 20:09:00,92.1,28.0,29.66,SW,232,2.0,-999.0,10,-99.99,,,0.00,weatherlink.com 1.10,2013-05-22 03:09:00,
2013-05-21 20:25:00,92.4,31.0,29.66,WSW,243,0.0,-999.0,11,-99.99,,,0.00,weatherlink.com 1.10,2013-05-22 03:25:00,
2013-05-21 20:39:00,91.8,32.0,29.66,WSW,243,0.0,-999.0,12,-99.99,,,0.00,weatherlink.com 1.10,2013-05-22 03:39:00,
2013-05-21 20:55:00,91.5,32.0,29.66,SSW,192,6.0,-999.0,12,-99.99,,,0.00,weatherlink.com 1.10,2013-05-22 03:55:00,
2013-05-21 21:10:00,91.3,32.0,29.66,SSW,195,2.0,-999.0,12,-99.99,,,0.00,weatherlink.com 1.10,2013-05-22 04:10:00,
2013-05-21 21:25:00,91.0,34.0,29.66,SSW,193,0.0,-999.0,13,-99.99,,,0.00,weatherlink.com 1.10,2013-05-22 04:25:00,
2013-05-21 21:40:00,91.3,36.0,29.66,SSW,206,2.0,-999.0,14,-99.99,,,0.00,weatherlink.com 1.10,2013-05-22 04:40:00,
2013-05-21 21:55:00,91.2,37.0,29.66,SSW,211,4.0,-999.0,15,-99.99,,,0.00,weatherlink.com 1.10,2013-05-22 04:55:00,
2013-05-21 22:10:00,90.5,39.0,29.66,SSW,203,4.0,-999.0,16,-99.99,,,0.00,weatherlink.com 1.10,2013-05-22 05:10:00,
2013-05-21 22:25:00,90.0,38.0,29.67,SSW,192,4.0,-999.0,16,-99.99,,,0.00,weatherlink.com 1.10,2013-05-22 05:25:00,
2013-05-21 22:40:00,89.2,37.0,29.67,SSW,200,0.0,-999.0,16,-99.99,,,0.00,weatherlink.com 1.10,2013-05-22 05:40:00,
2013-05-21 22:55:00,88.0,35.0,29.68,SSE,148,1.0,-999.0,15,-99.99,,,0.00,weatherlink.com 1.10,2013-05-22 05:55:00,
2013-05-21 23:10:00,87.0,36.0,29.67,SSE,150,0.0,-999.0,16,-99.99,,,0.00,weatherlink.com 1.10,2013-05-22 06:10:00,
2013-05-21 23:25:00,86.7,37.0,29.67,SE,143,5.0,-999.0,17,-99.99,,,0.00,weatherlink.com 1.10,2013-05-22 06:25:00,
2013-05-21 23:41:00,86.4,35.0,29.67,SE,140,7.0,-999.0,16,-99.99,,,0.00,weatherlink.com 1.10,2013-05-22 06:41:00,
2013-05-21 23:56:00,85.6,36.0,29.67,SSE,159,7.0,-999.0,17,-99.99,,,0.00,weatherlink.com 1.10,2013-05-22 06:56:00,